Location: Huesca
(42.1318°N, 0.4078°W)
Time: 17:23:16
(UTC+01:00)

Explorer 7 - Pass Details

Date: 22 December 2025
Orbit: 433 x 550 km, 50.2° (Epoch: 17 January)

Event Time Altitude Azimuth Distance (km) Brightness Sun altitude
Rises 19:21:10 0° 303° (WNW) 2,459 10.8 -19.2°
Reaches altitude 10° 19:23:26 10° 311° (NW) 1,569 9.6 -19.6°
Enters shadow 19:26:06 35° 353° (N) 729 7.3 -20.0°
